• In Uzbekistan
  • List of Countries
  • For 7 days
  • Water Temperature
  • Satellite Maps
  • Weather Map
  • Weather Widgets
  • user-avatar
    Login

    Hourly Weather Sianki

    Today, 20 April, Friday

    Time Temperature Precipitation Wind Pressure Humidity
    00:00 +7°C° 0 mm 3 mps 693 mmHg 78%
    01:00 +5°C° 0 mm 3 mps 693 mmHg 80%
    02:00 +5°C° 0 mm 2 mps 692 mmHg 87%
    03:00 +5°C° 0 mm 2 mps 692 mmHg 89%
    04:00 +4°C° 0 mm 2 mps 692 mmHg 91%
    05:00 +4°C° 0 mm 2 mps 692 mmHg 93%
    06:00 +4°C° 0 mm 2 mps 693 mmHg 87%
    07:00 +4°C° 0 mm 3 mps 693 mmHg 81%
    08:00 +7°C° 0 mm 3 mps 693 mmHg 75%
    09:00 +8°C° 0 mm 3 mps 694 mmHg 69%
    10:00 +9°C° 0 mm 3 mps 694 mmHg 63%
    11:00 +10°C° 0 mm 4 mps 694 mmHg 57%
    12:00 +11°C° 0 mm 4 mps 694 mmHg 53%
    13:00 +12°C° 0 mm 4 mps 694 mmHg 50%
    14:00 +13°C° 0 mm 4 mps 694 mmHg 47%
    15:00 +13°C° 0 mm 3 mps 694 mmHg 48%
    16:00 +13°C° 0 mm 3 mps 694 mmHg 49%
    17:00 +13°C° 0 mm 3 mps 693 mmHg 49%
    18:00 +12°C° 0 mm 2 mps 693 mmHg 57%
    19:00 +9°C° 0 mm 2 mps 693 mmHg 64%
    20:00 +8°C° 0 mm 1 mps 692 mmHg 72%
    21:00 +7°C° 0 mm 1 mps 692 mmHg 74%
    22:00 +7°C° 0 mm 1 mps 692 mmHg 76%
    23:00 +6°C° 0 mm 1 mps 692 mmHg 77%

    Tomorrow, 21 April, Saturday

    Time Temperature Precipitation Wind Pressure Humidity
    00:00 +6°C° 0 mm 1 mps 692 mmHg 77%
    01:00 +5°C° 0 mm 1 mps 692 mmHg 78%
    02:00 +5°C° 0 mm 1 mps 691 mmHg 78%
    03:00 +5°C° 0 mm 1 mps 691 mmHg 77%
    04:00 +5°C° 0 mm 1 mps 691 mmHg 76%
    05:00 +5°C° 0 mm 1 mps 690 mmHg 74%
    06:00 +6°C° 0 mm 2 mps 690 mmHg 69%
    07:00 +7°C° 0 mm 2 mps 691 mmHg 63%
    08:00 +9°C° 0 mm 2 mps 691 mmHg 58%
    09:00 +12°C° 0 mm 2 mps 691 mmHg 53%
    10:00 +13°C° 0 mm 3 mps 691 mmHg 48%
    11:00 +16°C° 0 mm 3 mps 691 mmHg 44%
    12:00 +17°C° 0 mm 3 mps 691 mmHg 43%
    13:00 +18°C° 0 mm 4 mps 691 mmHg 43%
    14:00 +18°C° 0 mm 4 mps 690 mmHg 43%
    15:00 +18°C° 0 mm 4 mps 690 mmHg 46%
    16:00 +18°C° 0 mm 3 mps 690 mmHg 49%
    17:00 +17°C° 0 mm 3 mps 689 mmHg 52%
    18:00 +14°C° 0 mm 3 mps 689 mmHg 61%
    19:00 +13°C° 0 mm 2 mps 688 mmHg 69%
    20:00 +10°C° 0 mm 2 mps 688 mmHg 78%
    21:00 +10°C° 0 mm 2 mps 688 mmHg 78%
    22:00 +10°C° 0 mm 2 mps 688 mmHg 79%
    23:00 +10°C° 0 mm 2 mps 688 mmHg 79%

    Day after tomorrow, 22 April, Sunday

    Time Temperature Precipitation Wind Pressure Humidity
    00:00 +10°C° 0 mm 1 mps 688 mmHg 81%
    01:00 +10°C° 0 mm 1 mps 688 mmHg 83%
    02:00 +10°C° 0 mm 1 mps 688 mmHg 85%
    03:00 +9°C° 0 mm 1 mps 688 mmHg 87%
    04:00 +8°C° 0 mm 1 mps 688 mmHg 89%
    05:00 +8°C° 0 mm 1 mps 688 mmHg 91%
    06:00 +9°C° 0 mm 1 mps 688 mmHg 84%
    07:00 +10°C° 0 mm 1 mps 688 mmHg 76%
    08:00 +12°C° 0 mm 1 mps 689 mmHg 69%
    09:00 +13°C° 0 mm 2 mps 689 mmHg 61%
    10:00 +14°C° 0 mm 2 mps 689 mmHg 53%
    11:00 +16°C° 0 mm 3 mps 689 mmHg 45%
    12:00 +16°C° 0 mm 3 mps 689 mmHg 43%
    13:00 +17°C° 0 mm 3 mps 689 mmHg 40%
    14:00 +17°C° 0 mm 3 mps 689 mmHg 38%
    15:00 +17°C° 0 mm 3 mps 688 mmHg 39%
    16:00 +17°C° 0 mm 3 mps 688 mmHg 41%
    17:00 +16°C° 0 mm 3 mps 688 mmHg 42%
    18:00 +14°C° 0 mm 2 mps 687 mmHg 50%
    19:00 +12°C° 0 mm 2 mps 687 mmHg 58%
    20:00 +10°C° 0 mm 1 mps 687 mmHg 66%
    21:00 +9°C° 0 mm 1 mps 687 mmHg 65%
    22:00 +9°C° 0 mm 1 mps 687 mmHg 65%
    23:00 +8°C° 0 mm 1 mps 687 mmHg 64%

    23 April, Monday

    Time Temperature Precipitation Wind Pressure Humidity
    00:00 +8°C° 0 mm 1 mps 687 mmHg 64%
    01:00 +8°C° 0 mm 1 mps 687 mmHg 64%
    02:00 +8°C° 0 mm 1 mps 687 mmHg 64%
    03:00 +7°C° 0 mm 1 mps 686 mmHg 65%
    04:00 +7°C° 0 mm 1 mps 686 mmHg 66%
    05:00 +7°C° 0 mm 1 mps 686 mmHg 67%
    06:00 +9°C° 0 mm 1 mps 686 mmHg 63%
    07:00 +11°C° 0 mm 1 mps 687 mmHg 59%
    08:00 +12°C° 0 mm 0 mps 687 mmHg 56%
    09:00 +14°C° 0 mm 1 mps 687 mmHg 53%
    10:00 +16°C° 0 mm 1 mps 687 mmHg 51%
    11:00 +18°C° 0 mm 2 mps 688 mmHg 49%
    12:00 +18°C° 0 mm 2 mps 687 mmHg 48%
    13:00 +19°C° 0 mm 2 mps 687 mmHg 47%
    14:00 +20°C° 0 mm 3 mps 687 mmHg 46%
    15:00 +19°C° 0.1 mm 3 mps 686 mmHg 51%
    16:00 +19°C° 0.1 mm 3 mps 686 mmHg 56%
    17:00 +18°C° 0.1 mm 3 mps 685 mmHg 60%
    18:00 +16°C° 0.6 mm 3 mps 685 mmHg 70%
    19:00 +15°C° 0.6 mm 2 mps 685 mmHg 79%
    20:00 +13°C° 0.6 mm 2 mps 684 mmHg 88%
    21:00 +13°C° 1 mm 2 mps 684 mmHg 90%
    22:00 +12°C° 1 mm 2 mps 684 mmHg 92%
    23:00 +12°C° 1 mm 2 mps 684 mmHg 94%

    24 April, Tuesday

    Time Temperature Precipitation Wind Pressure Humidity
    00:00 +12°C° 0.6 mm 2 mps 684 mmHg 95%
    01:00 +12°C° 0.6 mm 2 mps 684 mmHg 95%
    02:00 +10°C° 0.6 mm 2 mps 684 mmHg 96%
    03:00 +10°C° 0.8 mm 2 mps 684 mmHg 96%
    04:00 +10°C° 0.8 mm 2 mps 684 mmHg 96%
    05:00 +10°C° 0.8 mm 2 mps 684 mmHg 96%
    06:00 +10°C° 0.1 mm 2 mps 685 mmHg 92%
    07:00 +10°C° 0.1 mm 2 mps 685 mmHg 89%
    08:00 +10°C° 0.1 mm 3 mps 686 mmHg 85%
    09:00 +11°C° 0 mm 3 mps 686 mmHg 76%
    10:00 +12°C° 0 mm 3 mps 687 mmHg 66%
    11:00 +14°C° 0 mm 3 mps 687 mmHg 57%
    12:00 +14°C° 0.1 mm 3 mps 687 mmHg 57%
    13:00 +14°C° 0.1 mm 3 mps 687 mmHg 57%
    14:00 +14°C° 0.1 mm 3 mps 687 mmHg 57%
    15:00 +14°C° 0.1 mm 4 mps 687 mmHg 57%
    16:00 +14°C° 0.1 mm 4 mps 687 mmHg 57%
    17:00 +14°C° 0.1 mm 4 mps 687 mmHg 57%
    18:00 +12°C° 0 mm 3 mps 687 mmHg 63%
    19:00 +10°C° 0 mm 2 mps 686 mmHg 70%
    20:00 +10°C° 0 mm 1 mps 686 mmHg 76%
    21:00 +9°C° 0 mm 1 mps 686 mmHg 77%
    22:00 +8°C° 0 mm 1 mps 687 mmHg 78%
    23:00 +8°C° 0 mm 1 mps 687 mmHg 80%

    25 April, Wednesday

    Time Temperature Precipitation Wind Pressure Humidity
    00:00 +8°C° 0 mm 1 mps 687 mmHg 80%
    01:00 +8°C° 0 mm 1 mps 687 mmHg 81%
    02:00 +7°C° 0 mm 1 mps 687 mmHg 81%
    03:00 +7°C° 0 mm 1 mps 687 mmHg 81%
    04:00 +6°C° 0 mm 2 mps 687 mmHg 81%
    05:00 +6°C° 0 mm 2 mps 687 mmHg 81%
    06:00 +8°C° 0 mm 2 mps 687 mmHg 78%
    07:00 +9°C° 0 mm 3 mps 687 mmHg 75%
    08:00 +11°C° 0 mm 4 mps 687 mmHg 72%
    09:00 +12°C° 0 mm 4 mps 687 mmHg 69%
    10:00 +13°C° 0 mm 5 mps 687 mmHg 66%
    11:00 +15°C° 0 mm 6 mps 687 mmHg 64%
    12:00 +15°C° 0.1 mm 6 mps 687 mmHg 66%
    13:00 +15°C° 0.1 mm 6 mps 687 mmHg 68%
    14:00 +15°C° 0.1 mm 6 mps 686 mmHg 70%
    15:00 +16°C° 0.3 mm 6 mps 686 mmHg 69%
    16:00 +16°C° 0.3 mm 6 mps 686 mmHg 69%
    17:00 +16°C° 0.3 mm 6 mps 685 mmHg 69%
    18:00 +15°C° 0.5 mm 6 mps 685 mmHg 72%
    19:00 +14°C° 0.5 mm 5 mps 685 mmHg 75%
    20:00 +13°C° 0.5 mm 5 mps 684 mmHg 79%
    21:00 +13°C° 0.6 mm 4 mps 685 mmHg 82%
    22:00 +12°C° 0.6 mm 4 mps 685 mmHg 86%
    23:00 +11°C° 0.6 mm 3 mps 685 mmHg 89%
    Show more